This demonstration page uses our WeatherBlox Daily Observations layout. Learn more.

Left ArrowRight Arrow

44.8408, -93.29828

Hourly Observations for December 20, 2019

Temp ( °F °C ) Dew Point ( °F °C ) Humidity (%) Winds ( mph kmh ) Pressure ( in mb ) Visibility ( mi km ) Precip ( " mm )
12:53 am 00:53 Mostly Cloudy 24 -4.4 17 -8.3 75 75 ESE 15 24 30.20 1023 7 11 0.00 0.00
1:53 am 01:53 Mostly Cloudy 23 -5 17 -8.3 78 78 SE 9 15 30.20 1023 7 11 0.00 0.00
2:53 am 02:53 Mostly Cloudy 25 -3.9 18 -7.8 75 75 SE 14 22 30.19 1022 7 11 0.00 0.00
3:53 am 03:53 Mostly Cloudy 24 -4.4 18 -7.8 77 77 SE 12 19 30.19 1022 7 11 0.00 0.00
4:53 am 04:53 Mostly Cloudy with Haze 25 -3.9 19 -7.2 78 78 SE 13 20 30.18 1022 6 10 0.00 0.00
5:53 am 05:53 Mostly Cloudy with Haze 24 -4.4 19 -7.2 81 81 SE 13 20 30.18 1022 6 10 0.00 0.00
6:53 am 06:53 Mostly Cloudy with Haze 24 -4.4 19 -7.2 81 81 SE 10 17 30.19 1022 6 10 0.00 0.00
7:53 am 07:53 Mostly Cloudy 25 -3.9 19 -7.2 78 78 SE 14 22 30.18 1022 7 11 0.00 0.00
8:53 am 08:53 Mostly Cloudy 26 -3.3 20 -6.7 78 78 SE 10 17 30.19 1023 7 11 0.00 0.00
9:53 am 09:53 Mostly Cloudy 28 -2.2 21 -6.1 75 75 SSE 13 20 30.19 1022 7 11 0.00 0.00
10:53 am 10:53 Mostly Cloudy 30 -1.1 22 -5.6 72 72 SSE 10 17 30.19 1022 9 14 0.00 0.00
11:53 am 11:53 Mostly Cloudy 34 1.1 23 -5 64 64 S 12 19 30.17 1022 10 16 0.00 0.00
12:53 pm 12:53 Mostly Cloudy 37 2.8 24 -4.4 59 59 SSW 9 15 30.15 1021 10 16 0.00 0.00
1:53 pm 13:53 Partly Cloudy 38 3.3 24 -4.4 57 57 SW 12 19 30.15 1021 10 16 0.00 0.00
2:53 pm 14:53 Mostly Sunny 37 2.8 25 -3.9 62 62 SW 10 17 30.15 1021 10 16 0.00 0.00
3:53 pm 15:53 Mostly Sunny 33 0.6 24 -4.4 70 70 WSW 12 19 30.18 1022 10 16 0.00 0.00
4:53 pm 16:53 Partly Cloudy 28 -2.2 22 -5.6 78 78 W 10 17 30.22 1023 9 14 0.00 0.00
5:14 pm 17:14 Mostly Cloudy 28 -2.2 23 -5 81 81 WSW 7 11 30.24 1024 8 13 0.00 0.00
5:49 pm 17:49 Cloudy with Mist and Fog 27 -3 23 -5 86 86 W 9 15 30.27 1025 6 10 0.00 0.00
5:53 pm 17:53 Cloudy with Mist and Fog 27 -2.8 23 -5 85 85 W 12 19 30.24 1024 6 10 0.00 0.00
6:13 pm 18:13 Cloudy with Mist and Fog 25 -3.9 22 -5.6 88 88 WSW 9 15 30.26 1025 4 6 0.00 0.00
6:53 pm 18:53 Cloudy with Mist and Fog 23 -5 20 -6.7 88 88 W 9 15 30.24 1024 3 5 0.00 0.00
7:28 pm 19:28 Cloudy with Mist and Fog 22 -5.6 20 -6.7 92 92 W 9 15 30.30 1026 3 5 0.00 0.00
7:53 pm 19:53 Cloudy with Mist and Fog 22 -5.6 20 -6.7 92 92 W 12 19 30.26 1025 3 5 0.00 0.00
8:53 pm 20:53 Cloudy with Mist and Fog 22 -5.6 19 -7.2 89 89 WSW 9 15 30.26 1025 3 5 0.00 0.00
9:11 pm 21:11 Cloudy with Mist and Fog 22 -5.6 19 -7.2 89 89 W 7 11 30.29 1026 3 4 0.00 0.00
9:53 pm 21:53 Cloudy with Mist and Fog 22 -5.6 19 -7.2 89 89 WSW 7 11 30.27 1025 2 3 0.00 0.00
10:53 pm 22:53 Cloudy with Mist and Fog 21 -6.1 19 -7.2 92 92 WSW 7 11 30.26 1025 3 4 0.00 0.00
11:01 pm 23:01 Cloudy with Mist and Fog 21 -6.1 19 -7.2 92 92 SW 9 15 30.29 1026 3 5 0.00 0.00
11:17 pm 23:17 Cloudy with Mist and Fog 21 -6.1 18 -7.8 88 88 WSW 8 13 30.28 1025 3 5 0.00 0.00
11:53 pm 23:53 Cloudy with Mist and Fog 21 -6.1 19 -7.2 92 92 WSW 7 11 30.26 1025 3 5 0.00 0.00

Powered by AerisWeather